#timestamp,LO_Frequency,Hit,StdDev 
1655823615.2,286046983.6,N
1655823635.1,286046977.8,N
1655823636.0,286046977.8,N
1655823655.8,286046976.9,N
1655823675.6,286046975.8,N
1655823695.5,286046977.3,N
1655823715.3,286046980.2,N
1655823735.1,286046979.5,N
1655823755.9,286046986.8,N
1655823775.7,286046986.1,N
1655823795.6,286046991.4,N
1655823815.4,286046990.2,N
1655823835.2,286046998.9,N
1655823855.1,286046999.7,N
1655823856.0,286046999.7,N
1655823875.8,286047001.6,N
1655823895.6,286047002.0,N
1655823915.5,286047002.0,N
1655823935.3,286047003.6,N
1655823955.2,286047003.3,N
1655823975.9,286047000.9,N
1655823995.7,286046998.8,N
1655824015.6,286046995.3,N
1655824035.4,286046995.4,N
1655824055.2,286046997.4,N
1655824075.1,286046995.8,N
1655824076.0,286046995.8,N
1655824095.8,286046989.8,N
1655824115.7,286046989.3,N
1655824135.5,286046991.5,N
1655824155.3,286046996.4,N
1655824175.2,286046990.1,N
1655824195.9,286046988.7,N
1655824215.7,286046986.6,N
1655824235.6,286046982.5,N
1655824255.4,286046986.7,N
1655824275.3,286046985.8,N
1655824295.1,286046989.0,N
1655824296.0,286046989.0,N
1655824315.8,286046992.0,N
1655824335.7,286046995.1,N
1655824355.5,286046995.5,N
1655824375.3,286046990.4,N
1655824395.2,286046988.7,N
1655824415.0,286046991.5,N
1655824415.9,286046991.5,N
1655824435.8,286046989.2,N
1655824455.6,286046987.8,N
1655824475.4,286046982.7,Y
1655824495.3,286046986.9,P
1655824515.1,286046992.6,N
1655824535.8,286046993.1,N
1655824555.7,286046999.2,N
1655824575.5,286047004.8,N
1655824595.4,286047008.2,N
1655824615.2,286047011.5,N
1655824635.0,286047018.7,N
1655824635.9,286047018.7,N
1655824655.8,286047020.0,N
1655824675.6,286047018.2,N
1655824695.4,286047016.3,N
1655824715.3,286047020.1,N
1655824735.1,286047022.0,N
1655824755.9,286047025.2,N
1655824775.7,286047026.6,N
1655824795.5,286047023.8,N
1655824815.4,286047024.6,N
1655824835.2,286047023.0,N
1655824855.0,286047023.1,N
1655824855.9,286047023.1,N
1655824875.8,286047021.3,N
1655824895.6,286047021.4,N
1655824915.5,286047016.2,N
1655824935.3,286047011.6,N
1655824955.1,286047015.0,N
1655824975.9,286047017.5,N
1655824995.7,286047022.0,N
1655825015.5,286047017.8,N
1655825035.4,286047023.2,N
1655825085.2,286047021.1,E
1655825095.2,286047011.4,N
1655825115.9,286047004.1,P
1655825135.7,286047003.5,N
1655825155.6,286047005.0,N
1655825175.4,286047001.6,N
1655825195.2,286046994.1,N
1655825215.1,286046987.7,N
1655825216.0,286046987.7,N
1655825235.8,286046981.2,N
1655825255.7,286046983.5,N
1655825275.5,286046987.2,N
1655825295.3,286046991.7,N
1655825315.2,286046996.9,N
1655825335.9,286047002.2,N
1655825355.7,286047006.5,N
1655825375.6,286047009.4,N
1655825395.4,286047013.0,N
1655825415.2,286047014.6,N
1655825435.1,286047012.1,N
1655825436.0,286047012.1,N
1655825455.8,286047011.9,N
1655825475.7,286047013.9,N
1655825495.5,286047011.1,N
1655825515.3,286047013.3,N
1655825535.2,286047009.4,N
1655825555.0,286047012.3,N
1655825555.9,286047012.3,N
1655825575.7,286047011.2,N
1655825595.6,286047013.1,N
1655825615.4,286047016.4,N
1655825635.3,286047017.7,N
1655825655.1,286047019.9,N
1655825656.0,286047019.9,N
1655825675.8,286047022.0,N
1655825695.7,286047022.1,N
1655825715.5,286047021.8,N
1655825735.4,286047021.0,N
1655825755.2,286047023.0,N
1655825775.0,286047020.5,N
1655825775.9,286047020.5,N
1655825795.8,286047023.5,N
1655825815.6,286047022.7,Y
1655825835.4,286047011.5,P
1655825855.3,286047009.6,P
1655825875.1,286047009.9,P
1655825895.9,286047010.1,Y
1655825915.7,286046996.9,P
1655825935.5,286046995.6,N
1655825955.4,286046994.2,N
1655825975.2,286046994.5,N
1655825995.1,286046995.8,N
1655825996.0,286046995.8,N
1655826015.8,286046996.9,N
1655826035.6,286046997.2,N
1655826055.5,286046995.8,N
1655826075.3,286046995.8,N
1655826095.1,286046993.3,N
1655826115.9,286046994.2,N
1655826135.7,286046996.4,N
1655826155.6,286046992.2,N
1655826175.4,286046989.4,N
1655826195.2,286046989.6,N
1655826215.1,286046990.7,N
1655826216.0,286046990.7,N
1655826235.8,286046990.6,N
1655826255.6,286046994.6,N
1655826275.5,286046993.6,N
1655826295.3,286046995.8,N
1655826315.2,286046995.1,N
1655826335.9,286046997.9,N
1655826355.7,286046996.0,N
1655826375.6,286046992.9,N
1655826395.4,286046990.7,N
1655826415.2,286046991.6,N
1655826435.1,286046988.2,N
1655826436.0,286046988.2,N
1655826455.8,286046985.2,Y
1655826475.7,286046987.8,P
1655826495.5,286046986.1,P
1655826515.3,286046984.2,P
1655826535.2,286046986.4,Y
1655826555.0,286046994.9,P
1655826555.9,286046994.9,N
1655826575.8,286046996.6,N
1655826595.6,286046997.6,N
1655826615.4,286046991.8,N
1655826635.3,286046993.1,N
1655826655.1,286046990.7,Y
1655826675.9,286046993.8,P
1655826695.7,286046995.5,P
1655826715.5,286046998.0,N
1655826735.4,286046999.6,N
1655826755.2,286047002.1,N
1655826775.1,286047004.1,N
1655826776.0,286047004.1,N
1655826795.8,286047002.4,N
1655826815.6,286047000.2,N
1655826835.5,286046997.5,N
1655826855.3,286046993.7,N
1655826875.1,286046992.6,N
1655826895.9,286046996.4,N
1655826915.7,286046997.7,N
1655826935.6,286046996.8,N
1655826955.4,286046998.5,N
1655826975.2,286046998.6,N
1655826995.1,286046997.5,N
1655826996.0,286046997.5,N
1655827015.8,286046998.0,N
1655827035.6,286046999.7,N
1655827055.5,286047002.9,N
1655827075.3,286047010.3,Y
1655827095.2,286047019.8,P
1655827115.9,286047023.2,N
1655827135.7,286047025.3,N
1655827155.6,286047026.9,N
1655827175.4,286047029.4,N
1655827195.2,286047029.8,N
